Regional Weather Roundup
Issued by NWS

Home | Current Version | Previous Version | Graphics & Text | Print | Product List | Glossary On
Versions: 1 2 3 4 5 6 7 8 9 10 11 12 13 14 15 16 17 18 19 20 21 22 23 24 25 26 27 28 29 30 31 32 33 34 35 36 37 38 39 40 41 42 43 44 45 46 47 48 49 50
713
ASUS45 KABQ 290701
RWRNM
NEW MEXICO REGIONAL WEATHER ROUNDUP
NATIONAL WEATHER SERVICE ALBUQUERQUE NM
100 AM MDT SUN MAY 29 2016

NOTE: "FAIR" MEANS FEW OR NO CLOUDS BELOW 12,000 FEET AGL WITH NO
       SIGNIFICANT WEATHER OR OBSTRUCTIONS TO VISION.

      THIS PRODUCT IS RELEASED AS TWO VERSIONS.  ONE VERSION NEAR
      THE TOP OF THE HOUR CONTAINING PRELIMINARY DATA FROM ALBUQUERQUE
      AND OTHER STATIONS.  A FINAL VERSION WITH ADDITIONAL DATA IS
      ISSUED ABOUT 10 MINUTES AFTER THE HOUR.

NMZ501-503-504-510>518-290800-
NORTHWEST PLATEAU/NORTHCENTRAL MOUNTAINS

CITY           SKY/WX    TMP DP  RH WIND       PRES   REMARKS
FARMINGTON     FAIR      56  28  34 NE3       30.10S
SANTA FE       FAIR      54  21  27 E5        30.16S
TAOS           MOCLDY    48  25  40 NW8       30.25R

$$
NMZ402-403-502-505>509-290800-
WESTCENTRAL MOUNTAINS/SOUTHWEST MOUNTAINS

CITY           SKY/WX    TMP DP  RH WIND       PRES   REMARKS
GALLUP         FAIR      52  29  41 CALM      30.14S
GRANTS         FAIR      52  24  33 CALM      30.16R
SILVER CITY      N/A     59   5  11 NW8       30.13R

$$
NMZ407-409-411-412-290800-
SOUTHERN DESERTS

CITY           SKY/WX    TMP DP  RH WIND       PRES   REMARKS
LORDSBURG      FAIR      68   5   8 NW9       30.04S
DEMING         FAIR      62   6  11 CALM      30.06R
HOLLOMAN AFB   FAIR      58   9  14 NE8       29.99F
ALAMOGORDO     FAIR      64   7  10 E9        30.01F
T OR C         FAIR      61   8  12 W9        30.05R

$$
NMZ519>523-290800-
CENTRAL VALLEYS/CENTRAL HIGHLANDS

CITY           SKY/WX    TMP DP  RH WIND       PRES   REMARKS
ALBUQUERQUE    MOCLDY    66  23  19 NE3       30.09F
DOUBLE EAGLE   FAIR      57  19  22 SE3       30.12S
CLINES CORNERS FAIR      49  21  33 S12       30.20S
BELEN          FAIR      57  11  16 S7        30.08S
SOCORRO        NOT AVBL

$$
NMZ524>526-539-540-290800-
SOUTHCENTRAL MOUNTAINS

CITY           SKY/WX    TMP DP  RH WIND       PRES   REMARKS
RUIDOSO        NOT AVBL

$$
NMZ527>531-290800-
NORTHEAST HIGHLANDS/NORTHEAST PLAINS

CITY           SKY/WX    TMP DP  RH WIND       PRES   REMARKS
LAS VEGAS      FAIR      55  26  32 S5        30.21S
RATON          FAIR      54  34  46 NE8       30.19S
CLAYTON        FAIR      56  45  66 SE6       30.15F

$$
NMZ532>537-290800-
EASTCENTRAL PLAINS

CITY           SKY/WX    TMP DP  RH WIND       PRES   REMARKS
TUCUMCARI      FAIR      65  46  50 SE12      30.05R
CANNON AFB     FAIR      60  50  68 SE7       30.07F
CLOVIS AIRPORT FAIR      59  46  63 SE8       30.08S

$$
NMZ028-029-538-290800-
SOUTHEAST PLAINS

CITY           SKY/WX    TMP DP  RH WIND       PRES   REMARKS
ROSWELL        FAIR      66  25  21 S5        30.01S
ARTESIA        FAIR      66  28  24 S5        30.00S
CARLSBAD       FAIR      71  57  61 S6        29.97S
HOBBS          FAIR      68  57  68 E13       30.05R


$$




USA.gov is the U.S. government's official web portal to all federal, state and local government web resources and services.